CAPE
nan nan nan nan nan nan nan nan nan nan nan nan nan nan nan 1 nan nan 10 11 11 0 nan nan nan nan nan 82 133 133 154 152 143 143 142 135 128 128 136 147 147 162 167 170 170 179 177 178 178 183 197 220 236 236 253 266 266 271 286 298 298 313 317 317 317 321 315 332 331 331 307 279 263 263 244 223 204 204 201 197 197 190 194 209 209 221
nan nan nan nan nan nan nan nan nan nan nan nan nan nan nan nan nan nan 3 5 5 nan nan nan nan nan nan 24 102 102 115 121 126 126 125 122 129 129 146 165 165 173 174 174 174 173 171 185 185 200 222 239 257 257 266 267 267 265 265 290 290 305 326 338 338 334 320 352 324 324 293 259 241 241 225 206 188 188 182 174 174 174 185 208 208 243
0 0 4 1 1 3 8 2 0 0 nan nan nan nan nan nan nan nan nan nan nan nan nan nan nan nan nan nan 78 78 97 107 115 115 113 116 137 137 163 183 183 171 167 159 159 158 170 189 189 208 233 251 261 261 271 280 280 268 263 283 283 289 306 312 312 320 308 305 292 292 258 237 231 231 199 179 167 167 157 145 145 148 146 159 159 208
18 22 26 27 27 24 17 6 1 1 nan nan nan nan nan nan nan nan nan nan nan nan nan nan nan nan nan nan 33 33 89 101 112 112 114 129 152 152 173 173 173 156 143 136 136 142 162 191 191 212 246 259 278 278 291 304 304 283 291 295 295 288 263 272 272 292 278 270 252 252 229 217 206 206 185 172 176 176 168 157 157 136 121 123 123 146
36 35 24 16 16 7 0 nan nan nan nan nan nan nan nan nan nan nan nan nan nan nan nan nan nan nan nan nan 6 6 84 111 119 119 126 142 153 153 161 154 154 138 125 124 124 136 157 187 187 218 246 275 293 293 308 335 335 331 317 321 321 297 273 267 267 258 247 243 231 231 215 201 190 190 174 189 206 206 206 168 168 143 119 108 108 120
20 12 3 0 0 nan nan nan nan nan nan nan nan nan nan nan nan nan nan nan nan nan nan nan nan nan nan nan 9 9 77 112 120 120 132 138 147 147 142 130 130 115 109 118 118 129 157 189 189 212 240 276 297 297 321 342 342 340 332 332 332 316 313 299 299 299 292 296 267 267 238 211 195 195 208 227 232 232 199 142 142 131 105 92 92 106
nan nan nan nan nan nan nan nan nan nan nan nan nan nan nan nan nan nan nan nan nan nan nan nan nan nan nan nan 26 26 77 94 115 115 122 121 112 112 106 108 108 106 110 119 119 136 158 190 190 220 256 285 319 319 349 336 336 329 312 314 314 308 295 304 304 350 347 334 295 295 260 212 199 199 228 227 207 207 152 115 115 105 87 79 79 89
nan nan 0 0 0 1 0 nan nan nan nan nan 1 1 0 3 10 10 1 nan nan nan nan nan nan nan nan nan nan nan nan nan nan nan 6 11 33 33 46 74 74 92 106 121 121 144 181 229 229 286 324 383 401 401 376 305 305 259 220 190 190 194 231 306 306 336 338 317 279 279 237 211 190 190 177 154 132 132 110 104 104 100 85 86 86 93
nan nan nan nan nan nan 0 nan nan nan 4 33 29 29 33 57 36 36 7 nan nan nan nan nan nan nan nan nan nan nan 5 22 0 0 nan nan nan nan 14 40 40 68 105 120 120 159 207 295 295 355 370 371 376 376 322 263 263 199 161 130 130 132 164 223 223 271 275 280 252 252 229 195 168 168 164 145 137 137 124 119 119 122 112 112 112 144
1 nan nan nan nan nan nan 3 39 39 61 54 61 61 53 32 9 9 0 nan nan nan nan nan nan nan nan nan nan nan 1 11 68 68 82 41 66 66 34 20 20 19 86 129 129 177 260 337 337 408 350 284 247 247 231 186 186 151 118 105 105 125 158 215 215 270 287 280 252 252 236 201 179 179 173 159 148 148 147 144 144 153 163 188 188 230
nan nan nan nan nan 3 27 51 74 74 33 7 0 0 nan nan nan nan nan nan nan nan nan nan nan nan nan nan nan nan nan nan nan nan nan 24 38 38 37 32 32 42 90 153 153 203 279 315 315 291 238 195 172 172 162 128 128 120 106 101 101 133 180 247 247 322 358 307 262 262 240 210 193 193 173 173 169 169 158 155 155 163 197 255 255 300
nan nan nan 1 1 22 15 8 0 0 nan nan nan nan nan nan nan nan nan nan nan nan nan nan nan nan nan nan 1 1 nan nan nan nan nan nan nan nan nan nan nan 14 57 155 155 216 248 224 224 175 139 112 138 138 121 88 88 107 103 119 119 165 247 311 311 349 335 292 249 249 232 201 170 170 145 163 160 160 153 139 139 137 173 238 238 307
nan nan 1 15 15 nan nan nan nan nan nan nan nan nan nan nan nan nan nan nan nan nan nan nan nan nan nan 2 13 13 nan nan nan nan nan nan nan nan nan nan nan 1 16 38 38 25 61 109 109 92 88 70 103 103 125 113 113 123 139 169 169 230 307 334 334 322 289 259 239 239 207 186 160 160 157 163 156 156 152 140 140 132 137 176 176 259
0 7 1 nan nan nan nan nan nan nan nan nan 0 0 2 0 nan nan nan nan nan nan nan nan nan nan 17 32 nan nan nan nan nan nan nan nan nan nan nan nan nan 3 12 15 15 3 16 19 19 3 25 28 55 55 75 116 116 148 179 232 232 296 319 301 301 282 261 259 234 234 226 202 186 186 174 174 164 164 154 144 144 122 99 108 108 132
28 2 nan nan nan nan nan nan nan nan nan nan 1 1 1 nan nan nan nan nan nan nan 0 15 15 19 4 0 nan nan nan nan nan nan nan nan nan nan nan nan nan 0 3 4 4 nan 3 nan nan nan nan 1 16 16 50 89 89 192 206 257 257 301 314 269 269 247 245 217 205 205 192 171 181 181 177 171 162 162 151 113 113 69 30 44 44 50
7 nan nan nan nan nan nan nan nan nan 0 3 4 4 3 0 nan nan nan 0 0 22 43 26 26 1 nan nan nan nan nan nan nan nan nan nan nan nan nan nan nan nan nan nan nan nan nan nan nan nan nan 19 76 76 103 105 105 169 216 278 278 291 279 234 234 189 166 128 109 109 103 96 103 103 136 155 146 146 121 79 79 28 17 21 21 32
nan nan nan nan nan nan nan nan 1 1 6 11 4 4 1 5 8 8 25 42 42 38 7 nan nan nan nan nan nan nan nan nan nan nan nan nan nan nan nan nan nan nan nan nan nan nan nan nan nan nan nan 48 93 93 110 139 139 165 192 220 220 212 184 146 146 118 95 78 58 58 52 42 44 44 67 113 120 120 92 57 57 24 17 19 19 29
nan nan nan nan nan nan nan 1 4 4 13 15 7 7 10 29 51 51 44 9 9 1 nan nan nan nan nan nan nan nan nan nan nan nan nan nan nan nan nan nan nan nan nan nan nan nan nan 5 5 6 3 86 97 97 115 143 143 150 156 150 150 121 87 76 76 64 54 50 43 43 43 37 31 31 31 54 79 79 75 56 56 29 19 20 20 25
nan nan nan nan nan nan nan 3 11 11 19 18 26 26 44 63 9 9 nan nan nan nan nan nan nan nan nan nan nan nan nan nan nan nan nan nan nan nan nan nan nan nan nan nan nan nan 17 7 7 9 64 94 110 110 119 120 120 119 104 92 92 77 62 55 55 51 52 52 61 61 67 47 46 46 29 26 34 34 45 47 47 30 23 21 21 22
3 2 1 1 1 1 3 12 25 25 38 44 59 59 61 10 nan nan nan nan nan nan nan nan nan nan nan nan nan nan nan nan nan nan nan nan nan nan nan nan nan nan nan 9 9 40 8 nan nan nan 64 93 101 101 94 87 87 82 85 82 82 72 65 57 57 50 54 68 99 99 122 97 69 69 57 35 27 27 44 42 42 36 27 23 23 20
4 2 2 2 2 5 12 19 25 25 53 72 58 58 22 nan nan nan nan nan nan nan nan nan nan nan nan nan nan nan nan nan nan nan 1 1 nan nan nan 1 1 2 7 26 26 2 nan nan nan nan 27 76 80 80 79 77 77 75 79 78 78 73 65 61 61 59 65 86 122 122 131 107 102 102 94 76 66 66 60 45 45 37 32 27 27 22
8 7 3 2 2 9 32 21 42 42 71 77 45 45 4 nan nan nan nan nan nan nan 2 4 4 5 7 8 4 4 nan nan 0 0 3 5 1 1 0 28 28 31 10 0 0 nan nan nan nan nan 16 66 73 73 81 85 85 91 82 79 79 74 67 66 66 71 89 104 97 97 73 60 55 55 72 71 75 75 61 48 48 37 33 28 28 25
10 12 6 3 3 11 22 4 12 12 76 69 42 42 5 nan nan nan 0 2 2 4 9 10 10 12 13 11 3 3 0 2 10 10 20 32 14 14 24 46 46 10 nan nan nan nan nan nan nan nan 13 74 87 87 97 98 98 95 88 82 82 74 79 82 82 85 96 88 69 69 47 28 24 24 34 41 51 51 53 44 44 35 30 25 25 21
5 3 0 0 0 2 1 3 17 17 60 64 43 43 11 nan nan nan 2 9 9 12 20 21 21 15 13 11 7 7 14 32 51 51 31 18 9 9 37 12 12 nan nan nan nan nan nan nan nan nan 6 74 99 99 100 98 98 96 93 91 91 90 91 92 92 89 83 67 50 50 36 30 29 29 29 32 38 38 35 32 32 29 24 22 22 18
nan nan nan 2 2 26 29 18 55 55 75 83 62 62 20 6 13 13 8 9 9 17 22 18 18 16 14 27 16 16 15 4 6 6 8 22 39 39 9 nan nan nan nan nan nan nan nan 0 0 1 7 43 89 89 94 92 92 95 94 100 100 104 104 95 95 83 66 52 43 43 36 36 34 34 36 39 38 38 35 31 31 26 22 18 18 14
31 43 62 118 118 194 201 176 166 166 144 98 48 48 8 8 8 8 10 18 18 22 25 17 17 19 13 12 14 14 5 nan 13 13 30 34 10 10 nan nan nan nan 1 nan nan 3 1 3 3 4 6 15 70 70 82 81 81 90 104 109 109 108 99 84 84 70 59 51 46 46 41 39 42 42 46 48 42 42 35 29 29 22 19 15 15 14
178 221 256 241 241 189 145 127 149 149 192 167 56 56 15 6 14 14 20 21 21 23 25 22 22 17 14 13 11 11 11 33 84 84 57 18 1 1 nan nan nan nan 3 1 1 1 8 12 12 13 7 0 20 20 66 81 81 95 112 110 110 97 84 72 72 60 58 56 48 48 43 44 50 50 55 51 43 43 32 26 26 21 18 14 14 13
206 189 142 103 103 81 86 114 145 145 159 163 149 149 63 17 22 22 23 22 22 24 17 19 19 21 17 17 17 17 21 55 54 54 22 2 2 2 1 1 1 2 1 2 2 5 27 21 21 9 0 nan nan nan 37 79 79 91 101 93 93 81 72 66 66 63 59 55 50 50 49 52 58 58 58 51 39 39 30 26 26 22 18 14 14 7
108 67 52 51 51 61 82 110 127 127 133 119 121 121 73 21 18 18 19 17 17 21 20 22 22 21 23 20 19 19 21 28 10 10 2 1 3 3 2 1 1 2 3 2 2 7 16 13 13 1 nan nan nan nan 16 62 62 72 73 68 68 68 61 64 64 65 58 55 51 51 54 61 60 60 55 44 35 35 32 27 27 22 20 16 16 8
nan 7 14 32 32 51 57 43 76 76 106 105 107 107 83 23 14 14 13 12 12 15 18 24 24 24 28 22 18 18 14 8 2 2 1 4 9 9 5 2 2 3 4 6 6 11 7 3 3 nan nan nan nan nan nan 7 7 9 24 52 52 51 55 61 61 60 56 54 52 52 58 60 58 58 50 40 36 36 36 31 31 24 18 15 15 10
nan nan nan nan nan 3 2 nan 19 19 77 99 96 96 65 13 8 8 9 11 11 9 18 20 20 26 34 23 15 15 8 3 4 4 1 8 11 11 5 5 5 3 3 13 13 12 6 nan nan nan nan nan nan nan nan nan nan nan nan 3 3 20 49 55 55 54 51 48 50 50 56 53 47 47 42 37 38 38 36 33 33 24 17 15 15 11
nan nan nan nan nan nan 4 3 2 2 1 3 6 6 26 27 22 22 10 10 10 12 17 21 21 21 21 21 13 13 8 nan 9 9 11 3 6 6 4 0 0 nan nan 2 2 3 7 4 4 1 nan nan nan nan nan nan nan nan nan nan nan nan 15 24 24 25 21 29 34 34 36 36 34 34 34 35 34 34 32 27 27 22 16 15 15 10
nan nan nan nan nan 1 3 2 1 1 3 1 3 3 2 7 29 29 19 10 10 9 7 8 8 8 8 7 9 9 2 nan 15 15 31 0 2 2 2 1 1 nan 0 4 4 10 8 2 2 nan nan nan nan nan nan nan nan 0 nan nan nan nan nan 2 2 2 6 11 14 14 29 32 33 33 35 33 29 29 26 21 21 19 17 17 17 11
nan nan nan 3 3 3 1 0 0 0 1 2 8 8 6 3 6 6 10 4 4 3 0 nan nan 0 0 1 2 2 0 nan 18 18 26 0 1 1 0 0 0 0 2 8 8 12 4 nan nan nan nan nan nan nan nan nan nan nan nan nan nan nan nan nan nan nan nan 1 1 1 9 15 28 28 31 28 23 23 20 18 18 17 18 17 17 9
nan nan 4 6 6 4 2 0 0 0 0 1 1 1 3 1 nan nan 0 0 0 nan nan nan nan nan nan nan nan nan nan nan 4 4 21 1 0 0 nan nan nan nan 0 10 10 8 0 nan nan nan nan nan nan nan nan nan nan nan nan nan nan nan nan nan nan nan nan nan 3 3 4 6 13 13 19 21 19 19 16 13 13 13 10 9 9 13
nan nan 10 7 7 4 1 1 nan nan 0 nan nan nan nan nan nan nan nan nan nan nan 2 nan nan nan nan nan nan nan nan nan 2 2 16 1 nan nan nan nan nan nan 3 12 12 3 nan nan nan 0 2 nan nan nan nan nan nan nan nan nan nan nan nan nan nan nan nan 1 7 7 4 8 13 13 10 18 17 17 13 10 10 8 6 2 2 5
nan 5 8 4 4 1 1 nan nan nan nan nan nan nan nan nan nan nan nan nan nan nan nan 1 1 nan 6 nan nan nan nan nan nan nan 2 0 nan nan nan 0 0 6 6 3 3 nan nan nan nan nan nan nan nan nan nan nan nan nan nan nan nan nan nan nan nan nan nan 10 10 10 7 12 11 11 9 17 10 10 10 10 10 6 3 2 2 2
1 5 6 2 2 0 nan nan nan nan nan nan nan nan nan nan nan nan nan nan nan nan nan nan nan nan 4 18 1 1 nan nan nan nan nan nan nan nan nan 1 1 13 1 nan nan nan nan nan nan nan nan nan nan nan nan nan nan nan nan nan nan nan nan nan nan nan 7 19 13 13 13 9 4 4 1 3 1 1 1 0 0 3 3 2 2 0
0 1 2 3 3 0 nan nan nan nan nan nan nan nan nan nan nan nan nan nan nan nan nan nan nan nan nan nan 3 3 4 nan nan nan nan nan nan nan 0 2 2 nan nan nan nan nan nan nan nan nan nan nan nan nan nan nan nan nan nan nan nan nan nan nan nan 0 14 7 5 5 5 2 0 0 nan nan nan nan nan nan nan 1 1 0 0 nan
5 3 2 6 6 nan nan nan nan nan nan nan nan nan nan nan nan nan nan nan nan nan nan nan nan nan nan nan nan nan nan nan nan nan nan nan nan nan nan nan nan nan nan nan nan 0 0 nan nan nan nan nan nan nan nan nan nan nan 0 nan nan nan nan nan nan nan 2 nan 0 0 1 nan nan nan nan nan nan nan nan nan nan nan 0 nan nan nan
12 4 1 0 0 0 nan nan nan nan nan nan nan nan nan nan nan nan nan nan nan nan nan nan nan nan nan nan nan nan nan nan nan nan nan nan nan nan nan nan nan nan nan nan nan nan nan nan nan nan nan nan nan nan nan nan nan 1 4 nan nan nan nan nan nan nan nan nan nan nan 2 1 0 0 nan nan nan nan nan nan nan nan nan nan nan nan
22 8 0 nan nan nan nan nan nan nan nan nan nan nan nan nan nan nan nan nan nan nan nan nan nan nan nan nan nan nan nan nan nan nan nan nan nan nan nan nan nan nan nan 0 0 nan 0 1 1 0 nan nan nan nan nan nan nan nan 1 nan nan nan nan nan nan nan nan nan nan nan 2 nan nan nan nan nan nan nan nan nan nan 0 nan nan nan nan
4 1 nan nan nan nan nan nan nan nan nan nan nan nan nan nan nan nan nan nan nan nan nan nan nan nan nan nan nan nan nan nan nan nan nan nan nan nan nan 0 0 0 0 1 1 1 1 6 6 3 0 nan nan nan nan nan nan nan nan nan nan nan nan nan nan nan nan nan nan nan nan nan nan nan nan nan nan nan nan nan nan 1 1 nan nan nan
1 nan nan nan nan nan nan nan nan nan nan nan nan nan nan nan nan nan nan nan nan nan nan nan nan nan nan nan nan nan nan nan nan nan nan 1 6 6 1 nan nan nan nan 2 2 3 3 6 6 3 0 nan nan nan nan nan nan nan nan nan nan 2 2 nan nan nan nan nan nan nan nan nan nan nan nan nan nan nan nan nan nan nan nan nan nan nan
nan nan nan nan nan nan nan nan nan nan nan nan nan nan nan nan nan nan nan nan nan nan nan nan nan nan nan nan 0 0 nan nan nan nan nan 11 13 13 nan nan nan nan nan 0 0 1 2 2 2 1 nan nan nan nan nan nan nan nan 1 8 8 7 nan nan nan nan nan nan nan nan nan nan nan nan nan nan nan nan nan nan nan nan nan nan nan nan
nan nan nan nan nan nan nan nan nan nan nan nan nan nan nan nan nan nan nan nan nan nan nan nan nan nan nan 1 1 1 nan nan 1 1 nan nan nan nan nan nan nan nan nan nan nan nan nan 0 0 1 nan nan nan nan nan nan nan 2 6 6 6 0 nan nan nan nan nan nan nan nan nan nan nan nan nan nan nan nan nan nan nan nan nan nan nan nan
nan nan nan nan nan nan nan nan nan nan nan nan nan nan nan nan nan nan nan nan nan nan nan nan nan nan 0 1 0 0 0 3 7 7 1 nan nan nan nan nan nan nan nan nan nan nan nan nan nan nan 0 nan nan nan nan nan nan nan nan nan nan nan nan nan nan nan nan nan nan nan nan nan nan nan nan nan nan nan nan nan nan nan nan nan nan nan
nan nan nan nan nan nan nan nan nan nan nan nan nan nan nan nan nan nan nan nan nan nan nan nan nan 0 1 0 1 1 3 7 6 6 1 nan nan nan nan nan nan nan nan nan nan nan nan nan nan nan nan nan nan nan nan nan nan nan nan nan nan nan nan nan nan nan nan nan nan nan nan nan nan nan nan nan nan nan nan nan nan nan nan nan nan nan
nan nan nan nan nan nan nan nan nan nan nan nan nan nan nan nan 17 17 nan nan nan nan nan nan nan 0 0 nan 3 3 11 7 2 2 1 nan nan nan nan nan nan nan nan nan nan nan nan nan nan nan nan 0 nan nan nan nan nan nan nan nan nan nan nan nan nan nan nan nan nan nan nan nan nan nan nan nan nan nan nan nan nan nan nan nan nan nan
nan nan nan nan nan nan nan nan nan nan nan nan nan nan nan nan nan nan nan nan nan nan nan 0 0 0 nan nan 1 1 4 3 1 1 0 nan nan nan nan nan nan nan nan nan nan nan nan nan nan 5 17 9 nan nan nan nan nan nan nan nan nan nan nan nan nan nan nan nan nan nan nan nan nan nan nan nan nan nan nan nan nan nan nan nan nan nan
nan nan nan nan nan nan nan nan nan nan nan nan nan nan nan nan nan nan nan nan nan nan nan nan nan nan nan nan 1 1 3 1 1 1 0 nan nan nan nan nan nan nan nan nan nan nan nan nan nan nan 0 22 4 4 nan nan nan nan nan nan nan nan nan nan nan nan nan nan nan nan nan nan nan nan nan nan nan nan nan nan nan nan nan nan nan nan
CIN
nan nan nan nan nan nan nan nan nan nan nan nan nan nan nan -25 nan nan -30 -23 -23 -45 nan nan nan nan nan -0 -0 -0 -0 -0 -0 -0 -0 -0 -0 -0 -0 -0 -0 -0 -0 -0 -0 -0 -0 -0 -0 -0 -0 -0 -0 -0 -0 -0 -0 -0 -0 -0 -0 -0 -0 -0 -0 -0 -0 -0 -0 -0 -0 -0 -0 -0 -0 -0 -0 -0 -0 -0 -0 -0 -0 -0 -0 -0
nan nan nan nan nan nan nan nan nan nan nan nan nan nan nan nan nan nan -21 -15 -15 nan nan nan nan nan nan -35 -0 -0 -0 -0 -0 -0 -0 -0 -0 -0 -0 -0 -0 -0 -0 -0 -0 -0 -0 -0 -0 -0 -0 -0 -0 -0 -0 -0 -0 -0 -0 -0 -0 -0 -0 -0 -0 -0 -0 -0 -0 -0 -0 -0 -0 -0 -0 -0 -0 -0 -0 -0 -0 -0 -0 -0 -0 -0
-22 -19 -14 -40 -40 -29 -11 -47 -57 -57 nan nan nan nan nan nan nan nan nan nan nan nan nan nan nan nan nan nan -0 -0 -0 -0 -0 -0 -0 -0 -0 -0 -0 -0 -0 -0 -0 -0 -0 -0 -0 -0 -0 -0 -0 -0 -0 -0 -0 -0 -0 -0 -0 -0 -0 -0 -0 -0 -0 -0 -0 -0 -0 -0 -0 -0 -0 -0 -0 -0 -0 -0 -0 -0 -0 -0 -0 -0 -0 -0
-7 -0 -0 -8 -8 -8 -7 -20 -34 -34 nan nan nan nan nan nan nan nan nan nan nan nan nan nan nan nan nan nan -2 -2 -0 -0 -0 -0 -0 -0 -0 -0 -0 -0 -0 -0 -0 -0 -0 -0 -0 -0 -0 -0 -0 -0 -0 -0 -0 -0 -0 -0 -0 -0 -0 -0 -0 -0 -0 -0 -0 -0 -0 -0 -0 -0 -0 -0 -0 -0 -0 -0 -0 -0 -0 -0 -0 -0 -0 -0
-6 -4 -7 -10 -10 -8 -18 nan nan nan nan nan nan nan nan nan nan nan nan nan nan nan nan nan nan nan nan nan -34 -34 -0 -0 -0 -0 -0 -0 -0 -0 -0 -0 -0 -0 -0 -0 -0 -0 -0 -0 -0 -0 -0 -0 -0 -0 -0 -0 -0 -0 -0 -0 -0 -0 -0 -0 -0 -0 -0 -0 -0 -0 -0 -0 -0 -0 -0 -0 -0 -0 -0 -0 -0 -0 -0 -0 -0 -0
-13 -13 -20 -19 -19 nan nan nan nan nan nan nan nan nan nan nan nan nan nan nan nan nan nan nan nan nan nan nan -16 -16 -0 -0 -0 -0 -0 -0 -0 -0 -0 -0 -0 -0 -0 -0 -0 -0 -0 -0 -0 -0 -0 -0 -0 -0 -0 -0 -0 -0 -0 -0 -0 -0 -0 -0 -0 -0 -0 -0 -0 -0 -0 -0 -0 -0 -0 -0 -0 -0 -0 -0 -0 -0 -0 -0 -0 -0
nan nan nan nan nan nan nan nan nan nan nan nan nan nan nan nan nan nan nan nan nan nan nan nan nan nan nan nan -0 -0 -0 -0 -0 -0 -0 -0 -0 -0 -0 -0 -0 -0 -0 -0 -0 -0 -0 -0 -0 -0 -0 -0 -0 -0 -0 -0 -0 -0 -0 -0 -0 -0 -0 -0 -0 -0 -0 -0 -0 -0 -0 -0 -0 -0 -0 -0 -0 -0 -0 -0 -0 -0 -0 -0 -0 -0
nan nan -17 -18 -18 -20 -19 nan nan nan nan nan -13 -13 -6 -8 -10 -10 -34 nan nan nan nan nan nan nan nan nan nan nan nan nan nan nan -17 -7 -0 -0 -0 -0 -0 -0 -0 -0 -0 -0 -0 -0 -0 -0 -0 -0 -0 -0 -0 -0 -0 -0 -0 -0 -0 -0 -0 -0 -0 -0 -0 -0 -0 -0 -0 -0 -0 -0 -0 -0 -0 -0 -0 -0 -0 -0 -0 -0 -0 -0
nan nan nan nan nan nan -4 nan nan nan -19 -5 -1 -1 -4 -4 -9 -9 -27 nan nan nan nan nan nan nan nan nan nan nan -17 -12 -30 -30 nan nan nan nan -0 -0 -0 -0 -0 -0 -0 -0 -0 -0 -0 -0 -0 -0 -0 -0 -0 -0 -0 -0 -0 -0 -0 -0 -0 -0 -0 -0 -0 -0 -0 -0 -0 -0 -0 -0 -0 -0 -0 -0 -0 -0 -0 -0 -0 -0 -0 -0
-31 nan nan nan nan nan nan -17 -7 -7 -6 -6 -8 -8 -8 -8 -17 -17 -31 nan nan nan nan nan nan nan nan nan nan nan -36 -14 -0 -0 -0 -0 -0 -0 -0 -0 -0 -0 -0 -0 -0 -0 -0 -0 -0 -0 -0 -0 -0 -0 -0 -0 -0 -0 -0 -0 -0 -0 -0 -0 -0 -0 -0 -0 -0 -0 -0 -0 -0 -0 -0 -0 -0 -0 -0 -0 -0 -0 -0 -0 -0 -0
nan nan nan nan nan -22 -11 -2 -5 -5 -23 -34 -43 -43 nan nan nan nan nan nan nan nan nan nan nan nan nan nan nan nan nan nan nan nan nan -1 -0 -0 -0 -0 -0 -0 -0 -0 -0 -0 -0 -0 -0 -0 -0 -0 -0 -0 -0 -0 -0 -0 -0 -0 -0 -0 -0 -0 -0 -0 -0 -0 -0 -0 -0 -0 -0 -0 -0 -0 -0 -0 -0 -0 -0 -0 -0 -0 -0 -0
nan nan nan -11 -11 -3 -5 -25 -54 -54 nan nan nan nan nan nan nan nan nan nan nan nan nan nan nan nan nan nan -21 -21 nan nan nan nan nan nan nan nan nan nan nan -5 -0 -0 -0 -0 -0 -0 -0 -0 -0 -0 -0 -0 -0 -0 -0 -0 -0 -0 -0 -0 -0 -0 -0 -0 -0 -0 -0 -0 -0 -0 -0 -0 -0 -0 -0 -0 -0 -0 -0 -0 -0 -0 -0 -0
nan nan -10 -1 -1 nan nan nan nan nan nan nan nan nan nan nan nan nan nan nan nan nan nan nan nan nan nan -27 -9 -9 nan nan nan nan nan nan nan nan nan nan nan -48 -26 -12 -12 -14 -0 -0 -0 -0 -0 -0 -0 -0 -0 -0 -0 -0 -0 -0 -0 -0 -0 -0 -0 -0 -0 -0 -0 -0 -0 -0 -0 -0 -0 -0 -0 -0 -0 -0 -0 -0 -0 -0 -0 -0
-17 -10 -1 nan nan nan nan nan nan nan nan nan -18 -18 -17 -28 nan nan nan nan nan nan nan nan nan nan -17 -10 nan nan nan nan nan nan nan nan nan nan nan nan nan -36 -23 -21 -21 -32 -11 -10 -10 -24 -0 -0 -0 -0 -0 -0 -0 -0 -0 -0 -0 -0 -0 -0 -0 -0 -0 -0 -0 -0 -0 -0 -0 -0 -0 -0 -0 -0 -0 -0 -0 -0 -0 -0 -0 -0
-5 -38 nan nan nan nan nan nan nan nan nan nan -26 -26 -28 nan nan nan nan nan nan nan -24 -10 -10 -5 -19 -33 nan nan nan nan nan nan nan nan nan nan nan nan nan -32 -26 -21 -21 nan -16 nan nan nan nan -33 -16 -16 -5 -0 -0 -0 -0 -0 -0 -0 -0 -0 -0 -0 -0 -0 -0 -0 -0 -0 -0 -0 -0 -0 -0 -0 -0 -0 -0 -0 -0 -0 -0 -0
-31 nan nan nan nan nan nan nan nan nan -25 -24 -23 -23 -18 -18 nan nan nan -9 -9 -7 -2 -3 -3 -11 nan nan nan nan nan nan nan nan nan nan nan nan nan nan nan nan nan nan nan nan nan nan nan nan nan -9 -0 -0 -0 -0 -0 -0 -0 -0 -0 -0 -0 -0 -0 -0 -0 -0 -0 -0 -0 -0 -0 -0 -0 -0 -0 -0 -0 -0 -0 -0 -0 -0 -0 -0
nan nan nan nan nan nan nan nan -23 -23 -21 -16 -22 -22 -21 -17 -14 -14 -4 -1 -1 -1 -5 nan nan nan nan nan nan nan nan nan nan nan nan nan nan nan nan nan nan nan nan nan nan nan nan nan nan nan nan -0 -0 -0 -0 -0 -0 -0 -0 -0 -0 -0 -0 -0 -0 -0 -0 -0 -0 -0 -0 -0 -0 -0 -0 -0 -0 -0 -0 -0 -0 -0 -0 -0 -0 -0
nan nan nan nan nan nan nan -21 -23 -23 -19 -11 -15 -15 -16 -17 -6 -6 -0 -3 -3 -8 nan nan nan nan nan nan nan nan nan nan nan nan nan nan nan nan nan nan nan nan nan nan nan nan nan -20 -20 -9 -11 -0 -0 -0 -0 -0 -0 -0 -0 -0 -0 -0 -0 -0 -0 -0 -0 -0 -0 -0 -0 -0 -0 -0 -0 -0 -0 -0 -0 -0 -0 -0 -0 -0 -0 -0
nan nan nan nan nan nan nan -18 -11 -11 -8 -10 -7 -7 -8 -3 -15 -15 nan nan nan nan nan nan nan nan nan nan nan nan nan nan nan nan nan nan nan nan nan nan nan nan nan nan nan nan -15 -7 -7 -1 -0 -0 -0 -0 -0 -0 -0 -0 -0 -0 -0 -0 -0 -0 -0 -0 -0 -0 -0 -0 -0 -0 -0 -0 -0 -0 -0 -0 -0 -0 -0 -0 -0 -0 -0 -0
-16 -19 -21 -20 -20 -20 -17 -11 -8 -8 -7 -8 -5 -5 -3 -14 nan nan nan nan nan nan nan nan nan nan nan nan nan nan nan nan nan nan nan nan nan nan nan nan nan nan nan -11 -11 -5 -7 nan nan nan -2 -0 -0 -0 -0 -0 -0 -0 -0 -0 -0 -0 -0 -0 -0 -0 -0 -0 -0 -0 -0 -0 -0 -0 -0 -0 -0 -0 -0 -0 -0 -0 -0 -0 -0 -0
-17 -20 -25 -25 -25 -18 -12 -11 -19 -19 -12 -9 -6 -6 -9 nan nan nan nan nan nan nan nan nan nan nan nan nan nan nan nan nan nan nan -7 -6 nan nan nan -29 -29 -19 -5 -1 -1 -16 nan nan nan nan -20 -0 -0 -0 -0 -0 -0 -0 -0 -0 -0 -0 -0 -0 -0 -0 -0 -0 -0 -0 -0 -0 -0 -0 -0 -0 -0 -0 -0 -0 -0 -0 -0 -0 -0 -0
-19 -18 -33 -40 -40 -22 -4 -22 -17 -17 -11 -9 -7 -7 -18 nan nan nan nan nan nan nan -9 -7 -7 -9 -12 -11 -21 -21 nan nan -7 -7 -4 -4 -14 -14 -27 -21 -21 -3 -11 -34 -34 nan nan nan nan nan -12 -0 -0 -0 -0 -0 -0 -0 -0 -0 -0 -0 -0 -0 -0 -0 -0 -0 -0 -0 -0 -0 -0 -0 -0 -0 -0 -0 -0 -0 -0 -0 -0 -0 -0 -0
-23 -19 -31 -47 -47 -31 -20 -33 -24 -24 -5 -6 -7 -7 -27 nan nan nan -13 -10 -10 -8 -7 -8 -8 -11 -14 -15 -31 -31 -42 -26 -9 -9 -5 -1 -8 -8 -22 -12 -12 -12 nan nan nan nan nan nan nan nan -14 -0 -0 -0 -0 -0 -0 -0 -0 -0 -0 -0 -0 -0 -0 -0 -0 -0 -0 -0 -0 -0 -0 -0 -0 -0 -0 -0 -0 -0 -0 -0 -0 -0 -0 -0
-31 -40 -54 -52 -52 -46 -38 -40 -22 -22 -5 -9 -16 -16 -36 nan nan nan -13 -11 -11 -11 -8 -8 -8 -11 -14 -14 -23 -23 -24 -15 -10 -10 -9 -3 -2 -2 -14 -15 -15 nan nan nan nan nan nan nan nan nan -31 -0 -0 -0 -0 -0 -0 -0 -0 -0 -0 -0 -0 -0 -0 -0 -0 -0 -0 -0 -0 -0 -0 -0 -0 -0 -0 -0 -0 -0 -0 -0 -0 -0 -0 -0
nan nan nan -35 -35 -17 -13 -26 -8 -8 -13 -12 -12 -12 -29 -18 -4 -4 -12 -16 -16 -12 -8 -8 -8 -8 -9 -1 -10 -10 -23 -55 -48 -48 -16 -1 -3 -3 -23 nan nan nan nan nan nan nan nan -34 -34 -40 -39 -7 -0 -0 -0 -0 -0 -0 -0 -0 -0 -0 -0 -0 -0 -0 -0 -0 -0 -0 -0 -0 -0 -0 -0 -0 -0 -0 -0 -0 -0 -0 -0 -0 -0 -0
-3 -6 -6 -0 -0 -0 -0 -0 -0 -0 -0 -8 -13 -13 -22 -11 -11 -11 -13 -10 -10 -7 -5 -6 -6 -4 -7 -9 -10 -10 -29 nan -50 -50 -11 -3 -18 -18 nan nan nan nan -18 nan nan -27 -27 -27 -27 -38 -42 -21 -0 -0 -0 -0 -0 -0 -0 -0 -0 -0 -0 -0 -0 -0 -0 -0 -0 -0 -0 -0 -0 -0 -0 -0 -0 -0 -0 -0 -0 -0 -0 -0 -0 -0
-0 -0 -0 -0 -0 -0 -0 -0 -0 -0 -0 -0 -0 -0 -11 -18 -12 -12 -7 -6 -6 -5 -3 -3 -3 -4 -6 -8 -12 -12 -23 -29 -15 -15 -5 -9 -17 -17 nan nan nan nan -18 -27 -27 -28 -16 -18 -18 -28 -36 -50 -7 -7 -0 -0 -0 -0 -0 -0 -0 -0 -0 -0 -0 -0 -0 -0 -0 -0 -0 -0 -0 -0 -0 -0 -0 -0 -0 -0 -0 -0 -0 -0 -0 -0
-0 -0 -0 -0 -0 -0 -0 -0 -0 -0 -0 -0 -0 -0 -0 -13 -6 -6 -3 -6 -6 -6 -3 -2 -2 -2 -4 -6 -9 -9 -18 -11 -18 -18 -28 -27 -12 -12 -17 -26 -26 -30 -20 -18 -18 -14 -0 -8 -8 -24 -44 nan nan nan -1 -0 -0 -0 -0 -0 -0 -0 -0 -0 -0 -0 -0 -0 -0 -0 -0 -0 -0 -0 -0 -0 -0 -0 -0 -0 -0 -0 -0 -0 -0 -2
-0 -0 -0 -0 -0 -0 -0 -0 -0 -0 -0 -0 -0 -0 -0 -11 -5 -5 -5 -7 -7 -5 -2 -0 -0 -0 -2 -5 -9 -9 -13 -13 -24 -24 -39 -26 -10 -10 -16 -25 -25 -23 -14 -15 -15 -12 -8 -15 -15 -40 nan nan nan nan -15 -0 -0 -0 -0 -0 -0 -0 -0 -0 -0 -0 -0 -0 -0 -0 -0 -0 -0 -0 -0 -0 -0 -0 -0 -0 -0 -0 -0 -0 -0 -2
nan -0 -0 -0 -0 -0 -0 -0 -0 -0 -0 -0 -0 -0 -0 -11 -10 -10 -9 -11 -11 -3 -1 -1 -1 -1 -3 -5 -8 -8 -12 -22 -39 -39 -40 -15 -7 -7 -14 -20 -20 -15 -12 -9 -9 -6 -14 -28 -28 nan nan nan nan nan nan -16 -16 -11 -0 -0 -0 -0 -0 -0 -0 -0 -0 -0 -0 -0 -0 -0 -0 -0 -0 -0 -0 -0 -0 -0 -0 -0 -1 -2 -2 -2
nan nan nan nan nan -18 -30 nan -12 -12 -0 -0 -0 -0 -0 -15 -16 -16 -15 -10 -10 -6 -2 -2 -2 -1 -1 -3 -4 -4 -10 -22 -30 -30 -34 -9 -5 -5 -12 -12 -12 -15 -15 -4 -4 -3 -7 nan nan nan nan nan nan nan nan nan nan nan nan -10 -10 -1 -0 -0 -0 -0 -0 -0 -0 -0 -0 -0 -0 -0 -0 -0 -0 -0 -0 -0 -0 -0 -1 -1 -1 -2
nan nan nan nan nan nan -23 -25 -32 -32 -32 -27 -18 -18 -1 -1 -4 -4 -12 -12 -12 -8 -4 -2 -2 -2 -2 -2 -2 -2 -4 nan -7 -7 -11 -11 -7 -7 -11 -11 -11 nan nan -12 -12 -4 -3 -10 -10 -23 nan nan nan nan nan nan nan nan nan nan nan nan -0 -0 -0 -0 -0 -0 -0 -0 -0 -0 -0 -0 -0 -0 -0 -0 -0 -0 -0 -0 -0 -0 -0 -1
nan nan nan nan nan -30 -22 -28 -33 -33 -25 -29 -22 -22 -25 -12 -0 -0 -5 -11 -11 -10 -8 -4 -4 -3 -3 -4 -3 -3 -8 nan -0 -0 -1 -14 -5 -5 -8 -8 -8 nan -10 -7 -7 -8 -9 -15 -15 nan nan nan nan nan nan nan nan -18 nan nan nan nan nan -5 -5 -5 -0 -0 -0 -0 -0 -0 -0 -0 -0 -0 -0 -0 -0 -0 -0 -0 -0 -0 -0 -1
nan nan nan -15 -15 -20 -34 -41 -38 -38 -28 -22 -11 -11 -13 -16 -12 -12 -6 -12 -12 -13 -14 nan nan -7 -6 -3 -3 -3 -8 nan -0 -0 -0 -9 -6 -6 -7 -6 -6 -5 -4 -3 -3 -7 -17 nan nan nan nan nan nan nan nan nan nan nan nan nan nan nan nan nan nan nan nan -5 -5 -5 -1 -0 -0 -0 -0 -0 -0 -0 -0 -0 -0 -0 -0 -0 -0 -1
nan nan -9 -12 -12 -20 -28 -33 -32 -32 -23 -18 -17 -17 -14 -17 nan nan -17 -14 -14 nan nan nan nan nan nan nan nan nan nan nan -3 -3 -0 -5 -5 -5 nan nan nan nan -3 -2 -2 -9 -21 nan nan nan nan nan nan nan nan nan nan nan nan nan nan nan nan nan nan nan nan nan -2 -2 -2 -1 -0 -0 -0 -0 -0 -0 -0 -0 -0 -0 -0 -0 -0 -1
nan nan -5 -12 -12 -15 -22 -18 nan nan -17 nan nan nan nan nan nan nan nan nan nan nan -5 nan nan nan nan nan nan nan nan nan -4 -4 -0 -5 nan nan nan nan nan nan -2 -3 -3 -13 nan nan nan -2 -0 nan nan nan nan nan nan nan nan nan nan nan nan nan nan nan nan -3 -1 -1 -1 -1 -0 -0 -0 -0 -0 -0 -0 -0 -0 -0 -0 -0 -0 -3
nan -4 -6 -15 -15 -20 -15 nan nan nan nan nan nan nan nan nan nan nan nan nan nan nan nan -4 -4 nan -3 nan nan nan nan nan nan nan -6 -7 nan nan nan -4 -4 -2 -2 -11 -11 nan nan nan nan nan nan nan nan nan nan nan nan nan nan nan nan nan nan nan nan nan nan -0 -0 -0 -0 -0 -0 -0 -0 -0 -0 -0 -0 -0 -0 -0 -0 -0 -0 -9
-5 -3 -7 -18 -18 -21 nan nan nan nan nan nan nan nan nan nan nan nan nan nan nan nan nan nan nan nan -5 -1 -11 -11 nan nan nan nan nan nan nan nan nan -1 -1 -1 -8 nan nan nan nan nan nan nan nan nan nan nan nan nan nan nan nan nan nan nan nan nan nan nan -2 -0 -0 -0 -0 -0 -1 -1 -1 -0 -1 -1 -1 -1 -1 -0 -0 -0 -0 -27
-8 -10 -11 -11 -11 -16 nan nan nan nan nan nan nan nan nan nan nan nan nan nan nan nan nan nan nan nan nan nan -6 -6 -6 nan nan nan nan nan nan nan -1 -2 -2 nan nan nan nan nan nan nan nan nan nan nan nan nan nan nan nan nan nan nan nan nan nan nan nan -7 -1 -0 -0 -0 -0 -1 -1 -1 nan nan nan nan nan nan nan -0 -0 -0 -0 nan
-4 -9 -11 -6 -6 nan nan nan nan nan nan nan nan nan nan nan nan nan nan nan nan nan nan nan nan nan nan nan nan nan nan nan nan nan nan nan nan nan nan nan nan nan nan nan nan -13 -22 nan nan nan nan nan nan nan nan nan nan nan -1 nan nan nan nan nan nan nan -4 nan -0 -0 -0 nan nan nan nan nan nan nan nan nan nan nan -0 nan nan nan
-1 -6 -11 -13 -13 -13 nan nan nan nan nan nan nan nan nan nan nan nan nan nan nan nan nan nan nan nan nan nan nan nan nan nan nan nan nan nan nan nan nan nan nan nan nan nan nan nan nan nan nan nan nan nan nan nan nan nan nan -0 -0 nan nan nan nan nan nan nan nan nan nan nan -0 -0 -0 -0 nan nan nan nan nan nan nan nan nan nan nan nan
-0 -2 -10 nan nan nan nan nan nan nan nan nan nan nan nan nan nan nan nan nan nan nan nan nan nan nan nan nan nan nan nan nan nan nan nan nan nan nan nan nan nan nan nan -2 -2 nan -3 -2 -2 -3 nan nan nan nan nan nan nan nan -0 nan nan nan nan nan nan nan nan nan nan nan -0 nan nan nan nan nan nan nan nan nan nan -0 nan nan nan nan
-3 -7 nan nan nan nan nan nan nan nan nan nan nan nan nan nan nan nan nan nan nan nan nan nan nan nan nan nan nan nan nan nan nan nan nan nan nan nan nan -4 -4 -5 -4 -1 -1 -2 -2 -0 -0 -3 -8 nan nan nan nan nan nan nan nan nan nan nan nan nan nan nan nan nan nan nan nan nan nan nan nan nan nan nan nan nan nan -0 -0 nan nan nan
-5 nan nan nan nan nan nan nan nan nan nan nan nan nan nan nan nan nan nan nan nan nan nan nan nan nan nan nan nan nan nan nan nan nan nan -17 -2 -2 -8 nan nan nan nan -2 -2 -1 -2 -0 -0 -4 -8 nan nan nan nan nan nan nan nan nan nan -1 -2 nan nan nan nan nan nan nan nan nan nan nan nan nan nan nan nan nan nan nan nan nan nan nan
nan nan nan nan nan nan nan nan nan nan nan nan nan nan nan nan nan nan nan nan nan nan nan nan nan nan nan nan -12 -12 nan nan nan nan nan -6 -3 -3 nan nan nan nan nan -4 -4 -2 -1 -1 -1 -3 nan nan nan nan nan nan nan nan -1 -0 -0 -0 nan nan nan nan nan nan nan nan nan nan nan nan nan nan nan nan nan nan nan nan nan nan nan nan
nan nan nan nan nan nan nan nan nan nan nan nan nan nan nan nan nan nan nan nan nan nan nan nan nan nan nan -8 -9 -9 nan nan -15 -15 nan nan nan nan nan nan nan nan nan nan nan nan nan -1 -1 -1 nan nan nan nan nan nan nan -1 -0 -0 -0 -1 nan nan nan nan nan nan nan nan nan nan nan nan nan nan nan nan nan nan nan nan nan nan nan nan
nan nan nan nan nan nan nan nan nan nan nan nan nan nan nan nan nan nan nan nan nan nan nan nan nan nan -11 -8 -8 -8 -7 -7 -8 -8 -15 nan nan nan nan nan nan nan nan nan nan nan nan nan nan nan -1 nan nan nan nan nan nan nan nan nan nan nan nan nan nan nan nan nan nan nan nan nan nan nan nan nan nan nan nan nan nan nan nan nan nan nan
nan nan nan nan nan nan nan nan nan nan nan nan nan nan nan nan nan nan nan nan nan nan nan nan nan -10 -11 -12 -6 -6 -3 -3 -4 -4 -9 nan nan nan nan nan nan nan nan nan nan nan nan nan nan nan nan nan nan nan nan nan nan nan nan nan nan nan nan nan nan nan nan nan nan nan nan nan nan nan nan nan nan nan nan nan nan nan nan nan nan nan
nan nan nan nan nan nan nan nan nan nan nan nan nan nan nan nan -0 -0 nan nan nan nan nan nan nan -10 -11 nan -4 -4 -0 -2 -5 -5 -8 nan nan nan nan nan nan nan nan nan nan nan nan nan nan nan nan -5 nan nan nan nan nan nan nan nan nan nan nan nan nan nan nan nan nan nan nan nan nan nan nan nan nan nan nan nan nan nan nan nan nan nan
nan nan nan nan nan nan nan nan nan nan nan nan nan nan nan nan nan nan nan nan nan nan nan -10 -10 -12 nan nan -5 -5 -3 -4 -6 -6 -8 nan nan nan nan nan nan nan nan nan nan nan nan nan nan -2 -1 -1 nan nan nan nan nan nan nan nan nan nan nan nan nan nan nan nan nan nan nan nan nan nan nan nan nan nan nan nan nan nan nan nan nan nan
nan nan nan nan nan nan nan nan nan nan nan nan nan nan nan nan nan nan nan nan nan nan nan nan nan nan nan nan -4 -4 -2 -4 -4 -4 -6 nan nan nan nan nan nan nan nan nan nan nan nan nan nan nan -10 -0 -0 -0 nan nan nan nan nan nan nan nan nan nan nan nan nan nan nan nan nan nan nan nan nan nan nan nan nan nan nan nan nan nan nan nan
Wind_Speed
11 11 11 13 12 12 12 14 14 14 14 13 12 13 13 14 13 13 15 15 14 14 13 14 15 16 17 20 22 25 26 27 29 30 31 32 33 33 33 33 33 34 34 34 34 34 34 34 33 33 32 31 30 30 29 29 29 29 29 30 30 31 31 32 32 31 31 31 30 30 31 30 30 29 28 28 28 28 28 28 28 28 28 28 28 28
11 11 11 13 14 14 12 13 13 14 14 15 14 14 14 15 14 13 13 14 15 14 13 13 14 14 15 15 19 23 25 27 29 30 31 32 33 33 33 33 33 33 33 34 34 34 34 34 33 33 32 31 31 30 29 29 28 28 29 29 30 30 31 31 31 30 30 30 30 30 30 30 29 28 27 27 27 27 27 28 28 29 29 28 28 27
11 11 10 11 12 13 12 13 13 14 15 16 16 16 17 17 15 13 13 13 13 13 12 12 13 13 13 13 17 22 25 27 29 30 31 32 32 32 32 32 32 33 33 34 34 34 34 34 33 33 32 31 31 31 30 30 30 30 30 30 30 30 30 30 30 30 30 30 31 31 30 30 28 27 27 27 27 27 28 28 29 30 30 29 28 28
10 10 10 9 10 12 13 13 14 14 15 15 16 17 18 17 15 13 13 12 12 12 12 12 12 12 11 12 15 20 24 27 29 30 31 31 31 31 31 31 32 33 34 34 34 34 34 34 33 33 32 32 31 31 31 31 31 31 31 31 31 30 30 30 29 29 29 30 31 31 31 29 28 27 27 27 27 27 28 28 29 29 30 30 29 28
9 9 9 9 10 11 13 14 14 14 14 14 15 16 16 15 13 12 12 11 11 11 11 11 11 12 11 11 14 18 24 27 29 31 31 31 30 30 30 31 32 33 34 34 35 34 34 34 33 33 33 32 32 31 30 30 31 30 30 30 30 30 30 30 29 29 29 30 31 31 31 30 29 28 27 26 26 27 27 27 27 28 29 29 29 28
10 9 10 9 10 10 11 12 12 13 13 13 13 14 14 12 11 11 10 10 10 10 10 10 11 11 12 12 15 19 24 27 29 30 30 29 29 29 29 31 32 33 34 34 34 34 34 34 34 34 33 32 31 30 29 29 29 29 28 28 29 29 29 29 28 29 29 30 31 31 31 31 29 27 26 25 25 25 26 26 26 26 27 28 28 28
9 9 9 9 10 10 10 11 12 12 12 12 11 11 11 10 10 10 11 10 10 10 10 10 11 11 12 13 16 19 22 24 26 26 26 26 26 27 28 30 32 33 34 34 34 34 34 34 34 34 33 32 30 28 28 28 28 28 27 27 27 28 28 28 28 28 29 30 30 30 30 30 28 26 24 24 24 25 25 25 25 25 26 27 27 27
10 9 9 10 10 10 10 10 11 11 11 10 9 9 9 8 9 10 11 11 10 10 10 11 11 11 11 12 14 16 16 17 18 18 19 20 22 24 26 29 31 32 33 33 34 34 34 34 34 33 32 30 28 27 28 28 28 28 28 28 29 29 28 28 27 27 27 28 28 28 28 27 26 24 23 24 24 24 25 25 25 25 25 26 26 26
10 11 11 11 12 12 11 10 9 9 9 8 7 7 8 9 9 10 10 11 10 9 10 11 11 11 11 12 12 13 14 14 13 12 13 14 15 18 22 25 28 30 31 32 33 33 34 33 33 32 30 28 27 26 27 27 28 29 29 30 30 30 30 29 28 27 26 26 27 26 26 25 24 23 23 23 23 24 24 24 24 24 24 25 26 26
11 12 13 12 11 10 10 9 7 7 6 6 6 7 8 9 10 11 11 11 10 9 9 10 11 11 12 11 12 12 13 13 14 16 17 17 19 21 23 23 24 26 29 30 31 32 32 32 31 30 28 27 26 26 26 27 28 29 30 30 30 30 30 30 29 27 26 25 25 25 24 23 23 22 22 22 22 23 23 22 22 23 24 25 25 26
12 13 13 12 10 7 6 6 5 5 6 6 7 7 7 8 9 11 13 13 12 11 10 11 11 11 12 11 11 11 10 10 11 13 16 18 21 23 23 24 24 25 28 29 29 30 29 29 29 28 27 26 26 26 26 27 28 28 29 29 30 30 30 29 29 28 26 25 24 23 23 22 22 22 22 23 23 22 22 22 22 22 23 24 25 26
12 12 10 8 6 5 4 5 5 6 7 7 9 10 10 10 9 10 13 13 13 13 12 11 11 11 11 11 10 9 8 8 9 9 10 12 14 15 16 17 19 20 22 23 24 24 25 26 27 27 26 25 25 25 25 25 27 28 29 29 29 29 28 28 27 27 26 24 23 22 22 21 22 22 23 23 23 23 22 21 21 22 23 23 24 25
11 8 6 5 5 5 6 7 7 8 8 9 10 12 12 11 10 10 11 13 13 13 12 12 11 10 10 8 7 6 7 8 8 8 8 8 8 9 9 11 12 13 14 14 15 16 19 22 23 24 24 24 24 24 24 24 26 27 28 28 28 27 27 26 26 25 25 24 23 22 22 22 22 22 22 23 23 23 22 21 21 21 22 22 22 23
9 6 5 5 6 7 8 9 10 11 10 10 11 11 12 11 11 11 11 12 12 12 11 11 10 8 6 5 5 6 6 7 7 7 8 7 7 7 8 10 11 11 11 11 11 12 15 17 17 17 20 20 21 21 21 23 25 27 27 27 26 25 25 25 25 25 24 23 23 22 22 22 22 22 23 23 23 22 21 20 20 20 20 20 20 20
7 6 7 8 9 9 9 10 11 11 11 11 11 11 11 12 12 12 12 12 12 10 9 9 8 7 4 4 5 5 7 6 7 7 9 9 8 8 9 10 11 11 11 11 11 12 15 14 13 12 13 15 16 18 19 21 24 27 27 27 26 25 25 25 25 25 24 24 24 23 23 23 24 24 24 23 22 21 19 18 18 18 18 19 19 18
6 8 10 11 11 10 10 10 11 11 12 11 11 11 12 12 12 12 11 11 9 8 6 7 7 7 6 6 6 6 7 7 7 7 10 11 10 9 10 10 11 12 11 11 11 12 12 11 11 11 11 14 18 21 23 23 25 27 27 27 26 25 25 25 25 25 25 25 25 25 25 25 25 25 25 24 23 21 18 17 17 17 18 19 19 19
8 10 11 11 12 12 11 11 11 11 11 11 11 11 12 12 11 10 9 8 6 6 6 7 9 9 8 7 6 6 6 7 7 8 11 12 12 11 9 10 11 12 11 11 11 11 11 10 10 9 9 14 18 22 24 25 27 28 28 28 27 26 26 25 26 26 27 27 27 27 26 26 26 26 26 26 24 22 19 18 17 17 18 18 18 18
10 10 11 12 12 12 11 11 11 11 11 11 11 12 12 11 9 7 6 6 7 8 9 9 8 8 8 8 7 6 5 7 7 9 11 13 13 11 9 10 11 12 12 12 12 11 10 9 8 9 11 17 20 23 25 26 27 28 28 28 28 28 28 28 28 28 28 28 28 28 27 26 26 26 26 26 25 23 21 20 19 18 18 18 18 18
11 11 11 11 11 11 11 10 10 10 10 10 11 11 11 9 7 6 7 8 9 10 11 10 10 9 9 10 9 8 7 7 9 10 12 13 13 11 9 10 11 12 12 12 11 9 8 7 9 12 16 19 22 24 25 26 27 27 28 28 29 29 30 29 29 29 29 28 28 27 27 26 25 25 25 25 25 24 22 21 20 19 18 18 18 18
12 12 11 11 11 12 11 11 10 10 10 11 11 11 10 8 8 8 9 9 10 10 10 11 11 11 10 11 11 10 8 8 9 11 12 13 13 12 10 10 11 11 11 9 7 6 6 7 9 11 15 18 21 23 25 25 26 26 27 28 29 29 30 30 29 29 28 28 27 26 25 25 24 24 24 24 24 23 22 21 20 19 19 18 18 17
13 13 11 11 11 11 11 10 10 11 12 12 12 11 9 8 8 9 9 10 10 11 11 11 11 11 10 10 11 10 9 9 10 10 10 11 11 10 8 8 9 9 9 6 5 5 6 7 7 7 11 16 20 22 24 24 25 26 27 28 29 30 30 29 29 28 27 26 25 24 24 24 24 24 24 23 22 21 20 20 19 19 19 18 18 18
13 13 13 12 11 11 11 11 12 13 14 14 12 10 8 8 9 10 10 10 11 11 11 11 11 10 10 10 11 10 10 8 9 10 9 10 11 10 7 6 5 6 6 5 6 6 6 7 7 8 12 17 20 22 23 24 24 26 27 29 29 29 29 29 28 27 26 25 24 24 24 24 25 24 24 23 21 20 19 19 19 19 19 19 19 19
13 13 13 12 12 11 11 11 11 11 12 12 11 10 8 8 9 10 11 11 11 11 11 11 11 10 10 10 10 10 9 9 9 9 8 10 11 9 6 4 4 5 6 6 6 7 8 8 8 9 13 18 20 21 22 23 24 25 27 28 28 28 28 28 27 27 26 25 25 25 25 26 25 25 24 23 22 21 20 20 20 20 20 20 20 20
13 13 12 11 10 9 9 9 10 10 9 10 10 10 9 10 10 11 11 11 11 11 11 11 11 10 10 10 10 10 8 8 7 7 7 9 10 9 5 4 6 8 8 8 8 9 9 9 9 9 10 15 18 19 21 22 24 25 26 27 27 27 27 26 26 26 27 27 27 27 27 27 26 25 25 24 23 22 21 21 21 21 21 22 22 22
13 12 11 11 11 12 13 14 14 14 13 12 12 12 12 13 13 13 12 11 11 10 10 11 11 11 10 10 9 8 7 6 6 6 6 7 8 7 5 6 7 9 10 9 9 9 10 10 9 9 8 11 14 17 19 21 23 24 25 26 26 25 25 26 26 27 27 28 28 27 27 27 26 25 24 23 23 22 21 21 22 22 22 23 23 23
18 17 16 18 20 23 25 26 26 25 24 20 16 14 13 13 13 12 11 10 10 10 11 11 11 11 9 8 8 7 6 5 5 5 5 5 6 7 7 7 8 9 11 10 9 9 10 11 10 8 7 8 11 15 17 20 21 23 24 24 24 24 25 25 26 27 27 27 27 27 27 26 26 25 24 23 23 22 22 23 23 23 24 24 23 23
23 23 25 26 27 28 29 29 29 29 29 26 23 20 16 13 12 11 11 10 10 10 11 11 11 11 10 9 8 7 6 5 4 3 4 6 7 9 8 8 8 9 11 10 10 10 12 11 10 8 6 6 7 10 15 17 19 21 22 23 23 24 25 25 26 27 27 27 27 27 27 26 26 25 24 23 23 23 24 24 24 24 24 23 21 19
21 22 24 25 26 27 27 27 27 27 27 27 27 26 20 14 11 11 10 10 10 10 11 11 11 11 10 9 8 7 7 5 4 4 5 6 7 8 8 8 8 9 10 10 10 11 12 11 9 7 6 6 6 7 11 14 17 19 20 21 22 23 24 25 25 26 26 26 26 27 27 26 26 25 24 24 24 25 25 25 25 24 23 19 15 12
19 21 23 24 25 25 25 24 23 23 24 26 26 24 19 12 10 10 10 10 10 10 11 11 11 10 10 10 9 8 7 6 5 6 6 7 7 8 8 8 8 8 9 9 9 9 9 8 6 5 5 6 6 6 8 11 13 15 17 19 20 21 22 23 24 24 25 26 26 27 27 26 25 25 25 25 26 26 26 27 25 23 18 14 11 10
15 17 18 18 19 19 18 16 16 18 21 23 24 22 17 12 10 10 10 10 10 10 11 11 11 10 10 10 10 8 6 5 5 6 7 7 7 7 8 8 8 8 7 7 7 7 6 5 5 4 4 6 6 6 7 8 9 10 11 14 15 16 19 20 22 23 24 25 26 26 26 26 26 26 26 26 27 27 27 27 24 19 12 10 9 9
13 13 12 13 13 12 11 11 12 14 16 18 19 17 14 11 10 9 9 9 9 10 10 11 10 10 10 9 9 7 5 5 6 7 7 7 7 7 8 8 8 8 7 6 7 7 7 5 4 4 4 6 7 7 7 7 8 8 7 8 9 11 15 18 19 21 22 24 25 25 26 26 26 26 27 27 27 26 26 26 22 17 10 9 9 9
12 12 11 11 10 10 9 10 10 10 11 12 12 12 11 11 10 9 9 9 9 9 10 10 10 10 10 10 9 8 6 6 8 9 9 7 7 7 7 8 9 9 7 7 7 8 7 6 5 4 5 6 7 7 7 8 7 7 7 7 7 8 13 15 17 18 18 20 22 23 24 25 26 26 26 26 26 25 24 23 20 16 10 9 9 9
12 11 11 11 10 9 9 9 9 9 9 9 9 9 9 10 10 10 9 8 8 9 9 10 10 11 10 10 10 9 7 8 9 11 12 9 7 6 7 8 9 9 9 8 8 8 7 7 6 6 6 7 7 6 7 7 7 6 6 6 6 7 11 12 13 13 14 16 17 19 21 23 24 24 24 24 23 22 21 22 20 17 13 10 9 9
12 12 12 11 10 9 8 8 9 9 9 9 9 9 9 9 9 9 9 9 9 9 9 10 10 11 11 10 9 9 8 9 11 13 13 10 7 6 8 9 9 9 9 8 7 7 6 7 7 7 7 7 6 6 5 5 5 5 4 5 6 7 9 10 10 10 12 12 13 13 15 16 18 19 19 19 19 19 20 21 21 21 18 13 10 9
12 12 12 11 10 9 9 9 9 9 9 9 9 9 9 9 9 9 9 9 9 9 9 9 10 10 11 10 10 10 9 9 11 13 13 11 9 7 8 9 9 9 9 8 7 6 5 7 9 10 9 8 6 5 4 4 4 4 5 6 7 8 8 8 9 9 10 11 11 11 11 11 11 12 12 14 16 17 19 20 21 21 20 16 13 11
11 12 11 10 9 9 9 9 10 10 10 9 9 9 9 9 9 9 9 10 10 10 11 11 10 10 10 11 11 11 11 11 12 14 14 12 10 9 8 8 9 9 9 8 7 7 6 8 10 11 11 9 7 5 3 3 4 5 6 7 7 8 8 8 8 9 9 10 10 10 9 9 8 8 9 12 15 17 19 19 20 20 19 15 13 13
11 11 10 9 9 9 9 9 9 9 9 9 9 9 9 9 10 10 10 10 10 11 11 12 12 12 13 12 12 12 12 12 13 14 15 13 12 10 9 8 9 10 9 8 8 8 8 9 10 10 9 7 6 5 5 5 6 6 7 8 8 8 8 8 8 9 9 10 10 9 8 8 8 7 8 12 14 15 16 17 17 17 17 12 11 14
11 11 10 9 9 9 9 9 9 9 9 9 9 10 10 11 11 11 11 11 11 12 12 11 11 12 15 16 15 15 14 15 16 17 17 15 13 11 10 9 9 9 9 9 9 9 9 9 9 8 6 5 6 7 7 7 8 8 8 8 8 8 7 7 8 8 8 9 9 9 9 8 7 7 7 8 8 8 9 10 11 13 14 9 7 13
10 10 10 10 9 9 9 9 10 10 10 10 10 10 11 11 12 12 11 10 11 11 12 11 11 12 14 15 16 17 16 17 17 17 17 15 13 11 10 9 9 9 9 9 9 9 8 7 6 6 6 6 7 8 7 7 8 9 9 9 8 7 7 7 7 8 8 7 8 8 8 7 6 6 6 6 6 6 6 6 7 9 10 9 4 5
10 10 10 10 10 10 10 10 10 10 10 10 11 11 11 11 10 10 10 10 10 11 12 12 11 11 12 12 13 14 15 14 14 14 14 13 12 10 9 9 9 9 9 8 7 6 5 5 6 7 8 7 7 7 7 7 8 9 10 9 7 7 8 8 8 7 6 6 7 7 6 6 6 6 6 6 6 6 6 5 6 6 7 6 5 3
11 10 10 10 10 10 10 10 10 10 10 10 10 10 9 9 9 9 9 9 10 10 10 10 10 10 10 10 11 12 13 13 14 14 12 12 12 11 9 9 9 8 7 6 5 5 6 7 7 8 8 7 7 8 8 8 9 10 11 9 9 9 10 9 8 7 5 6 6 6 6 6 6 6 6 6 6 5 5 5 5 5 5 4 4 3
11 11 10 10 10 10 10 10 10 11 10 10 9 9 9 9 9 9 9 9 9 9 9 9 9 10 10 10 10 10 10 11 11 11 11 11 11 10 9 7 6 6 6 6 7 7 7 7 7 7 7 6 6 6 7 8 9 9 9 9 10 10 10 9 6 4 5 6 6 6 6 6 6 5 6 5 5 5 5 5 6 6 6 4 4 3
11 10 10 10 10 10 11 11 11 10 9 9 9 9 9 9 9 9 10 10 10 10 10 10 10 10 10 10 9 9 8 8 9 9 9 8 8 7 6 6 6 6 7 8 8 8 8 8 7 6 5 5 5 6 8 8 9 9 9 9 9 8 6 5 5 5 6 6 6 5 5 5 5 5 5 4 4 4 4 5 6 7 7 5 4 3
10 10 10 10 10 10 10 10 9 9 9 9 9 9 9 9 10 10 10 10 10 10 10 10 9 9 9 9 9 8 7 7 7 8 6 6 5 4 4 5 6 7 7 7 7 7 7 7 6 5 4 5 5 6 7 8 8 8 8 8 8 7 5 5 6 7 7 6 6 5 5 5 5 4 4 3 3 4 5 5 5 6 6 5 5 4
10 10 10 10 10 10 10 10 10 9 9 9 9 10 10 10 10 10 9 10 10 10 10 10 9 8 7 8 8 8 8 7 6 5 3 3 4 5 5 5 6 7 7 7 6 6 6 6 6 5 5 5 6 6 7 7 8 8 8 8 7 7 6 6 6 6 6 6 6 5 6 5 5 4 3 3 4 4 5 6 6 6 6 5 5 5
9 10 10 10 10 10 11 11 10 10 9 10 10 10 10 10 9 9 10 10 10 10 10 9 8 7 7 8 8 8 8 7 6 4 3 3 3 4 5 6 6 7 6 6 6 6 6 6 6 6 5 5 5 5 5 6 7 7 7 7 7 7 6 6 6 6 6 5 5 6 6 6 4 3 3 3 4 5 5 6 6 6 6 6 6 6
10 10 11 10 10 10 10 10 10 10 10 10 10 10 10 10 9 10 10 10 10 10 10 9 8 7 8 8 8 8 8 8 7 6 5 5 5 5 5 5 6 7 7 7 6 6 6 6 6 6 5 5 4 4 4 5 6 6 7 7 7 6 6 6 6 5 5 5 5 6 6 5 4 3 3 4 4 5 5 6 6 6 6 6 6 6
11 11 11 11 10 10 10 10 10 10 10 10 10 10 10 10 10 11 10 10 10 10 9 8 7 7 8 8 8 8 9 8 8 7 7 6 5 5 6 6 6 7 7 7 7 7 6 5 5 5 4 3 3 4 5 5 5 6 6 6 6 6 6 6 6 6 5 5 6 6 6 4 4 3 3 3 4 5 6 6 7 7 6 6 6 7
11 11 11 11 10 10 10 10 10 10 11 11 11 10 10 11 12 12 10 10 10 9 8 8 7 7 8 8 8 8 9 8 8 7 7 6 5 5 6 7 7 7 7 6 6 4 4 4 3 2 2 3 4 4 5 5 5 5 5 5 5 5 5 5 5 6 5 6 7 7 6 4 3 3 3 4 5 6 6 7 7 7 7 7 7 7
11 10 11 10 10 11 11 11 11 11 11 11 11 11 10 10 10 10 9 9 9 8 8 7 7 7 8 8 8 8 8 8 8 7 7 5 5 5 6 7 8 8 7 6 5 4 2 1 0 1 4 6 6 5 5 5 5 5 4 4 4 4 4 4 5 5 6 6 6 6 6 5 4 4 3 5 6 7 7 8 8 8 8 7 7 8
11 10 10 10 10 10 10 10 11 11 11 11 11 11 11 10 10 9 9 9 9 8 7 7 7 7 8 8 8 8 8 8 8 8 7 5 5 5 6 7 7 7 7 7 6 4 2 1 1 2 4 7 8 8 5 5 5 5 4 4 4 4 4 4 4 5 5 5 5 5 6 6 5 5 4 5 6 7 8 8 8 8 8 7 8 9
Wind_Direction
294 296 298 298 297 296 295 296 296 296 296 296 296 296 295 295 295 296 297 296 293 289 286 283 284 285 287 289 291 293 295 297 299 300 300 299 298 297 297 296 296 296 297 297 298 297 297 297 296 296 296 296 297 298 299 300 300 300 301 300 299 298 296 293 291 289 288 287 287 286 285 284 283 282 281 281 282 282 282 282 281 280 278 276 273 270
293 294 296 299 299 298 297 298 298 297 297 297 297 296 296 296 295 294 293 289 286 282 280 281 283 285 287 289 293 296 298 299 299 299 298 297 296 295 295 295 296 297 298 299 299 299 298 298 297 297 297 297 298 298 299 299 298 298 298 298 298 297 296 294 293 291 290 289 287 286 284 283 282 282 282 282 282 281 281 280 279 279 278 276 274 272
297 297 298 301 301 300 299 299 298 296 295 296 296 295 295 294 292 290 288 286 283 281 280 283 287 289 291 293 296 297 297 297 297 296 296 295 294 294 295 296 298 299 300 301 300 300 299 298 297 297 297 298 298 298 298 298 298 298 298 298 297 296 294 293 292 292 290 288 286 284 282 282 281 281 281 280 280 279 277 277 276 275 275 275 274 272
296 297 300 301 299 296 294 295 295 295 294 293 293 292 291 289 287 285 283 283 282 283 284 288 292 294 294 293 293 293 293 293 294 294 294 294 294 295 296 298 300 301 301 301 300 299 298 297 297 297 297 296 296 297 297 297 297 298 298 298 297 295 294 293 292 291 290 288 286 283 281 280 279 278 278 278 277 276 275 274 273 273 273 273 273 272
289 291 296 298 296 294 293 293 294 294 293 291 289 288 286 284 283 282 282 283 285 288 291 294 294 293 290 287 287 288 290 291 292 293 294 294 295 296 298 300 301 301 301 300 299 298 297 297 296 295 295 295 295 295 296 296 297 298 299 298 297 296 294 294 293 293 291 290 287 285 282 280 277 276 276 276 276 275 274 273 272 272 272 272 271 271
285 288 293 295 295 295 295 293 293 292 291 288 285 284 283 283 284 286 288 290 292 294 295 294 291 288 284 282 283 286 289 291 293 294 295 295 296 298 299 300 301 301 300 299 298 298 297 296 295 294 294 294 294 295 296 297 297 297 297 297 296 295 295 295 295 294 293 291 288 285 282 279 276 275 274 275 275 275 274 273 273 272 272 271 271 270
287 289 293 294 293 291 290 288 287 287 286 287 287 288 289 290 291 292 293 295 295 295 293 290 287 284 281 281 283 287 290 292 293 294 294 296 297 298 300 300 300 300 299 298 297 297 296 295 294 293 293 293 294 295 295 295 295 296 296 296 295 295 295 296 295 294 292 288 285 283 280 277 275 274 274 274 274 274 274 274 273 273 272 271 270 269
292 293 294 294 292 289 283 281 282 284 287 292 296 299 298 296 294 292 292 290 290 290 290 288 285 283 282 283 286 288 290 291 291 292 293 295 297 298 299 299 299 299 298 297 296 296 295 295 294 293 293 293 294 293 293 295 296 297 299 299 299 299 298 298 296 294 290 287 284 281 278 276 275 274 274 274 274 274 274 273 273 272 271 270 269 267
293 295 294 291 289 288 285 283 286 291 298 300 301 299 298 295 293 290 289 288 288 288 290 289 288 286 285 286 287 287 287 287 288 289 292 294 296 298 298 298 298 297 296 296 295 295 295 294 294 294 293 293 292 292 293 297 300 302 302 303 303 302 301 300 298 296 293 290 288 285 282 280 279 278 278 277 276 275 274 273 273 272 270 269 267 265
292 292 291 287 284 284 286 290 294 298 300 294 289 287 289 291 292 292 292 291 291 291 291 290 289 289 288 286 286 286 287 288 289 291 293 295 296 297 297 297 296 295 294 294 294 294 295 294 294 294 293 293 293 295 298 302 303 304 303 303 303 302 302 301 301 301 300 298 296 294 293 293 292 291 290 286 282 279 277 275 275 273 271 268 266 263
293 290 287 286 286 286 286 290 294 295 293 289 286 284 283 287 291 295 297 297 296 295 292 289 288 288 289 288 288 288 290 291 292 292 293 295 296 296 297 296 295 294 293 293 293 293 293 293 292 293 294 296 299 301 302 303 302 302 302 301 301 301 301 302 303 304 304 302 301 301 303 305 306 305 303 298 291 286 281 280 279 278 275 270 266 262
292 289 286 287 291 296 297 295 295 297 300 300 299 297 294 293 295 298 298 298 297 296 293 290 287 286 287 290 293 295 296 293 291 291 292 293 295 296 296 296 294 293 292 291 291 291 290 290 290 292 294 297 300 301 301 300 300 299 299 299 299 300 301 303 304 304 304 303 303 304 306 309 310 309 308 302 297 291 286 284 283 281 279 275 269 264
288 287 289 295 303 307 307 306 306 307 309 308 306 304 302 302 301 299 295 292 292 291 291 290 289 289 291 294 297 297 294 290 288 289 290 291 293 295 297 295 294 292 291 290 288 287 287 289 290 292 294 296 297 298 298 297 297 297 297 298 299 300 301 302 303 304 303 303 304 305 307 308 308 306 304 300 297 294 291 288 286 284 281 279 275 269
289 292 300 305 308 308 308 310 311 311 310 308 305 303 301 301 299 295 290 287 286 288 290 291 292 295 297 295 290 286 286 287 289 290 291 290 293 295 297 294 292 290 288 287 286 285 286 288 290 291 293 294 294 295 294 294 294 295 296 298 300 301 302 303 303 304 304 305 306 306 307 307 306 303 300 297 295 295 294 294 293 291 290 290 287 281
295 304 306 305 305 306 309 310 309 308 306 304 302 299 297 295 292 288 285 285 286 289 291 292 294 295 292 288 286 288 291 293 295 295 295 292 292 294 296 292 290 287 286 285 285 285 286 287 287 287 288 289 289 289 289 291 295 297 298 301 302 303 302 302 303 303 304 305 307 308 308 308 306 304 300 297 295 295 297 300 301 302 303 303 302 298
303 305 304 304 305 306 308 308 307 305 303 301 298 295 293 290 288 286 284 285 288 293 297 301 301 298 291 288 291 296 299 299 299 298 297 294 294 294 295 291 288 286 284 283 282 282 283 282 281 281 284 285 287 289 292 295 298 301 301 303 303 303 301 301 302 304 305 306 307 307 307 306 305 303 300 298 296 296 299 302 304 306 307 308 308 307
308 307 306 306 305 305 306 306 303 300 299 296 293 290 287 286 285 283 282 287 294 301 304 306 305 303 299 297 296 298 304 303 301 299 297 294 293 294 293 289 286 285 283 280 279 279 280 280 282 282 282 282 287 293 297 300 302 303 303 304 304 304 303 304 305 306 307 307 307 306 304 302 300 299 297 297 297 297 299 300 300 301 302 303 304 304
308 307 306 304 303 303 305 303 300 297 294 292 291 289 287 284 284 287 294 303 306 305 302 301 299 299 300 300 301 306 314 309 305 300 297 293 293 293 292 286 282 280 279 277 276 277 278 280 281 281 279 289 294 298 301 303 304 304 305 305 306 306 307 307 307 308 307 307 305 304 302 299 296 294 293 293 294 295 296 296 296 297 298 298 299 300
303 302 302 301 300 300 300 298 296 295 293 294 294 293 289 287 292 301 307 306 303 301 302 301 299 297 297 296 299 307 318 312 305 299 294 291 290 290 290 284 279 276 274 274 275 277 279 277 275 277 283 293 298 301 302 303 304 304 305 306 306 307 307 306 306 306 306 305 304 303 301 299 296 293 290 289 289 289 290 291 292 293 295 295 295 295
298 297 298 299 299 297 295 292 291 291 293 296 295 294 291 295 299 301 300 299 299 299 300 299 298 297 296 295 299 305 314 310 301 293 288 286 286 286 286 282 278 274 272 272 275 277 277 276 280 286 293 296 299 300 302 302 303 304 305 305 305 304 304 304 303 303 303 304 304 305 305 304 302 298 293 290 287 285 287 288 290 291 292 292 292 292
296 295 295 296 294 293 290 288 288 290 293 294 293 291 290 295 298 300 301 302 301 300 299 296 295 296 297 296 298 302 306 300 291 285 282 281 281 281 282 279 275 273 273 275 276 276 275 278 281 287 291 295 297 299 300 301 302 303 303 302 302 302 301 301 301 302 303 304 306 309 311 311 310 307 303 298 294 291 289 289 289 290 290 290 289 289
293 292 292 289 286 283 283 285 287 289 291 291 290 289 290 296 300 302 304 303 302 300 298 296 294 294 295 293 293 293 293 285 278 276 277 278 278 279 282 281 279 280 283 286 286 284 282 284 285 288 292 295 296 297 298 298 299 300 300 300 300 300 300 299 300 301 303 305 308 310 312 312 311 309 306 303 300 297 293 292 291 290 289 289 288 287
288 287 287 284 281 279 282 285 287 288 289 289 288 289 293 299 302 303 304 304 302 300 297 295 293 291 289 287 286 285 281 273 270 271 275 279 282 284 290 291 290 289 288 290 292 293 293 292 292 293 294 294 293 294 294 295 296 297 298 298 298 298 298 299 301 303 306 308 309 310 310 309 307 306 304 302 300 297 294 292 291 290 289 288 287 285
286 284 284 283 281 281 282 285 288 290 291 291 290 292 295 298 300 302 303 302 300 298 295 293 291 289 286 284 283 281 277 273 271 271 275 278 281 286 297 305 301 295 292 295 299 300 299 295 293 292 290 290 290 291 292 293 294 295 295 296 296 297 298 300 303 305 307 308 308 308 307 306 304 302 300 298 296 294 293 291 291 290 289 287 286 284
288 288 289 290 292 293 294 296 297 299 299 297 297 299 301 302 303 303 302 300 298 295 294 292 291 289 288 288 286 284 282 278 276 274 277 278 282 288 305 308 304 300 297 300 302 302 298 294 291 288 284 285 287 288 290 291 292 293 293 294 295 297 300 302 304 306 306 306 306 305 305 304 302 300 299 297 295 294 292 291 290 289 287 285 283 281
297 300 302 303 303 303 303 303 304 304 304 303 304 305 307 306 305 304 301 298 297 296 295 293 291 290 290 290 288 287 288 284 279 277 282 288 295 300 305 306 303 300 299 300 301 299 294 291 288 285 281 280 282 285 287 288 290 291 291 293 296 298 301 302 303 303 303 303 302 302 302 301 300 299 297 296 295 293 292 290 289 287 285 283 281 278
305 306 307 307 307 307 306 306 305 305 305 305 306 306 307 307 304 301 297 298 299 298 295 292 291 290 290 289 288 289 294 293 291 289 292 296 298 299 302 304 303 301 299 298 296 294 291 289 287 284 278 275 276 280 285 286 288 289 291 293 296 298 300 300 300 300 300 300 300 300 300 300 299 298 297 296 295 293 292 289 287 285 282 280 278 275
310 311 310 309 308 307 306 305 305 305 305 305 305 305 305 304 301 297 295 298 297 295 290 290 290 292 293 293 293 294 297 297 297 298 299 296 293 294 300 303 302 300 298 296 293 290 287 285 283 281 276 274 275 279 283 286 288 290 291 293 295 296 297 298 298 299 299 300 300 300 299 298 298 297 297 296 295 293 290 287 285 282 279 275 271 264
312 310 309 308 307 306 305 304 303 302 302 302 302 303 303 300 296 293 293 295 293 290 286 288 289 292 294 295 296 295 295 294 298 302 304 297 292 291 298 300 299 298 297 295 291 287 281 278 276 276 275 281 284 286 287 289 289 290 290 292 292 293 295 296 297 298 299 299 299 299 299 298 298 297 297 295 293 291 288 285 282 280 274 267 260 254
312 311 308 307 305 303 301 299 298 297 298 299 300 301 300 296 291 288 289 290 289 287 287 289 291 293 296 297 297 296 293 296 303 306 306 296 290 290 297 296 295 295 297 296 293 289 283 277 275 279 287 294 296 295 292 290 288 286 286 288 289 290 292 295 297 298 299 299 299 299 299 298 298 297 296 294 291 289 285 282 279 275 265 257 250 245
312 309 306 303 300 297 295 292 292 293 296 298 299 298 296 292 288 286 287 288 287 287 288 291 293 295 297 299 299 298 297 302 305 305 301 293 288 289 295 294 293 292 293 294 295 295 295 290 286 288 297 300 298 295 291 288 285 283 283 284 286 288 292 295 297 299 299 299 299 299 298 297 296 295 294 292 289 287 284 282 278 273 262 252 245 240
308 305 302 299 296 294 292 293 294 295 296 297 296 295 293 291 289 288 287 288 287 288 289 291 292 293 293 292 291 292 295 299 300 300 296 290 286 287 291 290 290 290 289 285 285 289 294 297 299 302 303 299 296 293 289 286 284 283 284 286 287 291 295 297 299 299 299 299 298 297 296 295 294 293 292 290 289 288 286 285 282 277 264 252 242 235
304 301 298 296 295 293 293 295 297 297 298 297 296 294 293 292 291 290 289 288 287 287 288 290 290 290 289 286 284 284 286 290 293 294 294 290 287 286 288 287 288 288 287 282 277 276 280 290 299 304 302 297 294 291 288 286 285 285 288 291 293 295 298 300 299 298 297 297 295 294 293 293 292 292 291 291 291 291 291 290 288 283 273 257 242 231
301 298 296 294 293 293 294 296 298 299 299 298 297 296 295 294 293 292 290 288 286 285 285 286 287 288 288 286 284 282 282 284 289 292 294 291 287 285 287 286 287 287 287 282 277 274 276 287 296 301 300 296 292 288 286 286 288 291 295 297 298 299 300 301 299 297 295 294 292 290 290 289 289 289 291 293 295 296 296 295 292 288 281 266 246 227
299 297 295 294 295 296 299 301 301 302 301 300 299 298 297 295 294 292 290 288 286 284 282 281 282 283 285 286 286 285 284 286 289 291 292 289 286 284 285 285 285 286 286 283 282 284 287 292 295 296 295 295 293 289 286 290 297 302 304 301 300 298 298 298 297 295 293 291 288 286 285 285 285 287 292 297 300 301 300 299 298 294 288 272 250 225
298 297 295 296 298 301 304 305 305 304 303 302 300 299 298 296 294 292 290 288 286 285 283 281 279 278 278 280 281 283 284 286 288 289 288 286 284 282 282 283 285 285 283 284 287 291 294 293 292 291 290 292 294 297 300 306 310 311 307 303 300 297 294 293 292 290 289 287 285 284 285 285 286 289 296 303 305 305 305 305 305 304 299 276 246 221
298 297 297 299 302 304 306 306 306 306 305 303 302 300 299 296 294 292 290 287 286 284 283 281 279 276 274 274 275 276 279 282 284 284 283 282 281 279 278 280 281 280 281 286 291 294 292 289 288 288 288 291 298 309 316 318 317 312 308 305 302 298 293 290 287 285 283 282 283 285 289 290 293 297 303 307 309 309 308 310 312 315 314 286 242 211
298 297 299 302 304 306 307 307 306 305 305 304 303 301 299 296 293 291 289 287 284 282 281 280 279 277 275 274 274 273 275 277 278 279 278 278 277 276 276 278 279 281 283 287 289 288 284 284 286 291 296 302 307 312 315 318 317 313 310 306 301 296 290 287 284 282 281 283 286 291 293 295 298 303 307 310 311 312 311 314 319 325 329 310 244 205
297 299 301 305 307 308 308 307 306 305 305 303 302 300 298 296 293 291 288 286 284 281 280 279 279 279 278 277 276 275 275 275 275 276 276 276 275 274 274 278 282 284 285 283 280 277 277 282 293 304 312 312 312 312 314 315 313 312 310 307 303 297 291 289 287 285 285 289 293 297 297 299 304 308 311 313 315 317 318 320 327 334 340 340 319 205
299 301 303 306 307 307 306 305 304 304 303 302 300 299 297 296 294 292 289 287 286 284 283 282 281 280 280 279 278 277 277 276 276 276 276 274 273 273 276 280 284 285 284 281 280 284 293 303 308 310 309 308 309 310 312 312 311 310 311 309 306 303 302 298 294 289 290 293 296 298 300 306 311 315 317 318 319 321 322 323 330 339 346 350 356 4
303 304 305 307 307 306 304 303 303 302 302 301 300 300 299 299 298 297 296 294 292 291 290 288 286 285 283 280 279 277 277 276 275 275 275 274 274 276 280 281 283 285 289 294 300 307 311 308 305 302 301 301 302 303 304 304 305 306 307 304 301 299 300 297 294 292 297 300 301 302 307 314 318 321 321 321 321 320 321 323 331 341 350 356 2 7
305 306 306 307 307 306 305 304 303 302 302 301 301 300 300 300 301 301 301 300 299 298 296 295 295 293 291 288 284 281 278 276 275 274 275 277 280 283 287 291 299 309 319 318 313 308 302 298 296 294 295 298 300 300 300 300 301 302 302 299 298 298 296 295 296 303 312 308 306 308 317 319 321 322 320 321 320 321 326 335 347 355 0 359 359 2
305 305 305 305 304 304 303 304 304 304 304 303 302 301 300 301 301 300 300 300 300 300 300 299 298 296 294 292 291 289 285 280 278 278 281 284 288 295 305 316 323 325 323 314 306 301 298 295 291 289 291 296 297 297 297 298 299 299 298 296 297 298 298 308 318 321 316 310 309 313 320 322 320 317 315 317 322 329 339 351 0 5 6 0 355 354
304 303 303 304 304 304 305 306 306 306 306 304 303 302 301 301 301 301 300 298 298 299 300 299 297 294 291 291 293 296 298 296 291 289 288 297 309 324 330 325 318 312 307 301 298 298 299 296 294 293 297 297 295 293 292 295 298 299 299 298 297 298 300 309 315 315 313 312 314 319 324 322 318 314 311 323 337 350 358 1 3 4 4 2 1 1
303 303 304 305 306 307 307 307 306 306 305 304 303 302 302 303 302 302 300 298 298 298 299 298 297 294 292 296 301 305 307 306 305 302 295 305 321 328 327 320 314 309 304 297 294 293 295 296 297 298 299 293 289 287 289 294 297 299 301 305 307 306 303 302 303 306 308 313 318 324 327 323 318 315 323 349 5 11 9 8 6 5 3 5 8 12
305 306 307 307 308 307 306 306 306 306 305 304 303 303 303 303 303 301 299 298 298 297 297 296 295 294 297 304 309 311 309 309 310 312 314 315 318 322 323 320 316 311 304 297 290 286 283 285 289 293 294 290 287 286 291 298 302 305 309 314 315 311 304 302 302 304 308 315 322 328 328 325 323 328 352 13 21 21 16 13 10 8 5 7 12 17
308 308 308 308 307 306 306 306 307 306 306 305 304 304 304 304 302 301 300 299 298 297 296 295 293 294 300 307 310 310 309 311 316 320 322 320 321 324 327 323 318 313 305 298 290 282 275 273 276 281 286 292 298 306 312 311 309 308 308 312 312 311 309 309 310 313 316 325 331 333 331 332 337 350 9 26 32 31 23 17 12 9 8 10 15 22
309 308 307 307 307 306 306 307 307 307 306 305 305 304 304 304 304 304 302 301 299 298 296 296 296 298 303 307 308 309 311 315 319 321 321 321 324 329 333 329 324 318 310 302 294 284 273 264 262 267 281 303 319 325 323 318 312 307 304 307 310 311 311 312 316 322 329 337 338 338 337 340 345 352 4 31 40 39 31 22 16 12 10 12 20 28
307 307 306 306 306 306 306 307 307 307 306 305 305 304 304 304 304 304 301 301 299 297 295 296 299 303 306 308 310 311 314 316 318 318 318 321 327 334 336 334 331 327 321 313 304 291 272 254 250 262 331 349 343 332 322 317 313 309 308 310 312 313 313 316 323 331 339 342 342 343 346 348 346 346 4 41 48 45 37 29 21 15 10 14 23 34
306 305 305 305 305 306 306 306 306 306 305 304 304 304 305 305 304 302 300 298 297 295 293 296 301 305 308 310 312 314 317 318 318 317 318 324 333 340 340 339 337 334 330 328 326 321 305 252 174 36 22 15 2 343 322 319 318 318 317 317 317 316 317 322 331 339 346 346 346 348 354 358 357 358 17 46 53 51 44 35 27 18 10 15 27 39
306 305 305 305 305 305 305 305 305 304 303 303 303 303 304 304 304 302 300 299 297 295 293 297 301 306 309 311 313 316 318 317 317 317 319 327 338 345 344 343 341 339 337 338 337 338 341 35 47 14 7 9 4 354 331 325 325 328 329 328 326 324 324 328 335 343 348 350 352 357 4 9 10 12 20 42 52 53 48 40 31 21 12 15 27 40